AE7VB Weather Reports


time (UTC)temp
C
wind
direction
speed
KPH
gust
KPH
rain 1hr
cm
rain 24hr
cm
rain mn
cm
humidity
%
barometer
mb
20260502215616 23 235 4.8 16.1 0.00 0.00 0.00 29 1020.4
20260502214615 23 296 3.2 16.1 0.00 0.00 0.00 29 1020.4
20260502213614 23 299 4.8 11.3 0.00 0.00 0.00 32 1020.5
20260502212613 23 282 4.8 16.1 0.00 0.00 0.00 36 1020.6
20260502211612 23 276 3.2 14.5 0.00 0.00 0.00 34 1020.6
20260502210611 22 286 3.2 14.5 0.00 0.00 0.00 33 1020.9
20260502205610 22 306 4.8 6.4 0.00 0.00 0.00 37 1021.0
20260502204609 22 6 3.2 14.5 0.00 0.00 0.00 39 1020.9
20260502203608 22 296 4.8 14.5 0.00 0.00 0.00 43 1021.0
20260502202607 21 11 1.6 4.8 0.00 0.00 0.00 43 1021.2
20260502201605 21 38 3.2 4.8 0.00 0.00 0.00 43 1021.2
20260502200604 21 55 1.6 4.8 0.00 0.00 0.00 45 1021.2
20260502195603 21 29 1.6 4.8 0.00 0.00 0.00 47 1021.2
20260502194602 21 21 1.6 4.8 0.00 0.00 0.00 45 1021.5
20260502193601 21 33 1.6 4.8 0.00 0.00 0.00 47 1021.4
20260502192600 20 30 1.6 6.4 0.00 0.00 0.00 48 1021.3
20260502191528 20 83 3.2 6.4 0.00 0.00 0.00 46 1021.7
20260502190527 20 20 1.6 8.0 0.00 0.00 0.00 49 1021.8
20260502185525 20 22 1.6 8.0 0.00 0.00 0.00 48 1021.7
20260502184453 19 26 1.6 4.8 0.00 0.00 0.00 47 1022.0
20260502183421 19 20 1.6 6.4 0.00 0.00 0.00 49 1022.0
20260502182419 19 30 1.6 6.4 0.00 0.00 0.00 48 1021.9
20260502181418 19 26 1.6 6.4 0.00 0.00 0.00 49 1022.0
20260502180418 19 351 3.2 6.4 0.00 0.00 0.00 49 1022.0
20260502170340 17 17 3.2 4.8 0.00 0.00 0.00 49 1021.9
20260502164339 16 338 1.6 6.4 0.00 0.00 0.00 50 1021.8
20260502163337 16 297 1.6 6.4 0.00 0.00 0.00 53 1021.8
20260502162336 15 276 3.2 4.8 0.00 0.00 0.00 52 1021.7
20260502161336 15 278 1.6 4.8 0.00 0.00 0.00 50 1021.6
20260502160304 14 282 1.6 4.8 0.00 0.00 0.00 57 1021.8
20260502152301 12 12 1.6 3.2 0.00 0.00 0.00 56 1021.7
20260502151259 12 13 1.6 3.2 0.00 0.00 0.00 54 1021.7
20260502150258 12 7 1.6 4.8 0.00 0.00 0.00 57 1021.8
20260502130246 8 89 1.6 3.2 0.00 0.00 0.00 69 1021.8
20260502123243 8 132 3.2 6.4 0.00 0.00 0.00 67 1022.1
20260502122242 8 110 1.6 3.2 0.00 0.00 0.00 67 1022.1
20260502121241 8 105 0.0 6.4 0.00 0.00 0.00 68 1022.1
20260502120240 8 99 1.6 6.4 0.00 0.00 0.00 68 1022.0
20260502115240 8 105 0.0 0.0 0.00 0.00 0.00 68 1022.0
20260502114238 8 84 0.0 0.0 0.00 0.00 0.00 68 1022.0
20260502113207 8 108 0.0 0.0 0.00 0.00 0.00 69 1022.0
20260502112135 8 127 0.0 0.0 0.00 0.00 0.00 68 1022.1
20260502111134 8 140 0.0 3.2 0.00 0.00 0.00 66 1022.2
20260502110133 10 219 0.0 6.4 0.00 0.00 0.00 62 1022.4
20260502105132 11 219 1.6 6.4 0.00 0.00 0.00 59 1022.6
20260502104131 11 231 0.0 3.2 0.00 0.00 0.00 57 1022.8
20260502103130 11 231 3.2 3.2 0.00 0.00 0.00 58 1022.7
20260502102057 10 238 0.0 11.3 0.00 0.00 0.00 60 1022.5
20260502101057 9 232 1.6 11.3 0.00 0.00 0.00 63 1022.6
20260502091019 10 141 0.0 0.0 0.00 0.00 0.00 65 1022.3
20260502070834 11 221 0.0 0.0 0.00 0.00 0.00 59 1022.7
20260502065833 11 221 0.0 0.0 0.00 0.00 0.00 59 1022.6
20260502064832 11 230 0.0 3.2 0.00 0.00 0.00 59 1022.6
20260502063800 11 205 1.6 3.2 0.00 0.00 0.00 59 1022.7
20260502062728 11 227 0.0 1.6 0.00 0.00 0.00 58 1022.5
20260502061727 11 188 0.0 0.0 0.00 0.00 0.00 58 1022.4
20260502060714 11 180 0.0 1.6 0.00 0.00 0.00 57 1022.4
20260502055642 11 160 0.0 1.6 0.00 0.00 0.00 57 1022.2
20260502054641 11 159 0.0 1.6 0.00 0.00 0.00 57 1022.2
20260502053640 11 159 0.0 1.6 0.00 0.00 0.00 57 1022.1
20260502052639 11 159 1.6 1.6 0.00 0.00 0.00 57 1021.9
20260502051638 12 159 1.6 3.2 0.00 0.00 0.00 56 1021.9
20260502050637 12 159 1.6 3.2 0.00 0.00 0.00 55 1021.9
20260502045502 12 159 1.6 3.2 0.00 0.00 0.00 55 1021.7
20260502044430 12 159 0.0 1.6 0.00 0.00 0.00 55 1021.6
20260502043429 12 159 0.0 1.6 0.00 0.00 0.00 55 1021.6
20260502042428 12 158 0.0 4.8 0.00 0.00 0.00 56 1021.6
20260502041427 12 160 0.0 6.4 0.00 0.00 0.00 54 1021.6
20260502040427 13 168 0.0 8.0 0.00 0.00 0.00 54 1021.5
20260502035425 13 160 0.0 9.7 0.00 0.00 0.00 54 1021.5
20260502034424 13 158 3.2 9.7 0.00 0.00 0.00 53 1021.1
20260502033423 13 159 0.0 0.0 0.00 0.00 0.00 53 1021.1
20260502032421 13 163 0.0 0.0 0.00 0.00 0.00 52 1021.1
20260502031420 14 154 0.0 3.2 0.00 0.00 0.00 52 1020.8
20260502030418 15 151 0.0 3.2 0.00 0.00 0.00 52 1020.9
20260502025417 15 156 0.0 4.8 0.00 0.00 0.00 51 1021.0
20260502024417 16 155 1.6 4.8 0.00 0.00 0.00 49 1021.0
20260502023416 17 144 0.0 0.0 0.00 0.00 0.00 48 1020.8
20260502022414 17 136 0.0 0.0 0.00 0.00 0.00 45 1020.9
20260502021413 18 79 0.0 0.0 0.00 0.00 0.00 45 1021.3
20260502020412 19 80 0.0 0.0 0.00 0.00 0.00 41 1021.2
20260502015412 19 26 0.0 3.2 0.00 0.00 0.00 38 1021.0
20260502014411 20 25 0.0 4.8 0.00 0.00 0.00 38 1020.9
20260502013410 20 32 1.6 12.9 0.00 0.00 0.00 37 1020.8
20260502012409 20 18 1.6 14.5 0.00 0.00 0.00 35 1020.6
20260502011305 21 28 3.2 14.5 0.00 0.00 0.00 33 1020.5
20260502010304 21 15 1.6 14.5 0.00 0.00 0.00 34 1020.9
20260502005305 21 21 3.2 14.5 0.00 0.00 0.00 33 1021.0
20260502004301 22 311 0.0 12.9 0.00 0.00 0.00 30 1021.1
20260502003228 22 299 8.0 12.9 0.00 0.00 0.00 27 1021.1
20260502002227 22 290 0.0 11.3 0.00 0.00 0.00 30 1021.3
20260502001227 22 291 6.4 16.1 0.00 0.00 0.00 27 1021.3
20260502000226 22 315 0.0 16.1 0.00 0.00 0.00 28 1021.6
20260501235224 22 293 6.4 14.5 0.00 0.00 0.00 27 1021.6
20260501234152 22 291 3.2 14.5 0.00 0.00 0.00 28 1021.7
20260501233151 22 295 0.0 12.9 0.00 0.00 0.00 28 1021.8
20260501232149 22 264 0.0 17.7 0.00 0.00 0.00 28 1022.2
20260501231117 22 321 3.2 17.7 0.00 0.00 0.00 28 1022.1
20260501230116 22 292 4.8 11.3 0.00 0.00 0.00 29 1022.1
20260501225114 22 318 0.0 12.9 0.00 0.00 0.00 28 1022.2
20260501224114 22 292 4.8 14.5 0.00 0.00 0.00 26 1022.5
20260501223113 22 299 4.8 14.5 0.00 0.00 0.00 29 1022.6
20260501222112 22 295 1.6 20.9 0.00 0.00 0.00 28 1022.9
20260501221110 22 298 3.2 11.3 0.00 0.00 0.00 28 1022.8